Location: Peebles
(55.6412°N, 3.1714°W)
Time: 00:32:26
(UTC+00:00)

Cosmos 2151 Rocket - Visible Passes

Search period start: 28 January 2022 00:00
Search period end: 07 February 2022 00:00
Orbit: 616 x 643 km, 82.5° (Epoch: 27 January)

Date Brightness Start Highest point End Pass type
(mag) Time Alt. Az. Time Alt. Az. Time Alt. Az.
28 Jan 6.2 03:57:14 16° NE 03:57:14 16° NE 03:58:17 10° NNE visible
28 Jan 5.1 05:34:37 23° NNW 05:34:37 23° NNW 05:36:36 10° N visible
29 Jan 6.0 04:18:03 18° NNE 04:18:03 18° NNE 04:19:14 10° NNE visible
29 Jan 5.3 05:55:26 18° NNW 05:55:26 18° NNW 05:57:01 10° N visible
30 Jan 5.8 04:38:49 18° NNE 04:38:49 18° NNE 04:40:00 10° NNE visible
30 Jan 5.6 06:16:12 13° NNW 06:16:12 13° NNW 06:17:10 10° NNW visible
31 Jan 5.7 04:59:33 17° N 04:59:33 17° N 05:00:39 10° N visible
01 Feb 6.5 03:42:51 11° NNE 03:42:51 11° NNE 03:43:06 10° NNE visible
01 Feb 5.7 05:20:14 15° N 05:20:14 15° N 05:21:08 10° N visible
02 Feb 6.3 04:03:31 13° NNE 04:03:31 13° NNE 04:03:57 10° NNE visible
02 Feb 5.8 05:40:54 12° NNW 05:40:54 12° NNW 05:41:25 10° NNW visible
03 Feb 6.2 04:24:10 13° N 04:24:10 13° N 04:24:40 10° N visible
04 Feb 6.1 04:44:47 12° N 04:44:47 12° N 04:45:13 10° N visible
05 Feb 6.1 05:05:24 11° N 05:05:24 11° N 05:05:36 10° N visible
06 Feb 6.5 03:48:37 10° NNE 03:48:37 10° NNE 03:48:38 10° NNE visible
